Regional Weather Roundup
Issued by NWS

Home | Current Version | Previous Version | Text Only | Print | Product List | Glossary Off
Versions: 1 2 3 4 5 6 7 8 9 10 11 12 13 14 15 16 17 18 19 20 21 22 23 24 25 26 27 28 29 30 31 32 33 34 35 36 37 38 39 40 41 42 43 44 45 46 47 48 49 50

336
ASUS43 KLMK 261210
RWRKY
KENTUCKY REGIONAL WEATHER ROUNDUP
NATIONAL WEATHER SERVICE LOUISVILLE KY
800 AM EDT WED APR 26 2017

NOTE "FAIR" INDICATES FEW OR NO CLOUDS BELOW 12,000 FEET
WITH NO SIGNIFICANT WEATHER AND/OR OBSTRUCTIONS TO VISIBILITY.

KYZ001>023-026-027-061>063-070>075-261300-
WESTERN AND SOUTH CENTRAL KENTUCKY

CITY           SKY/WX    TMP DP  RH WIND       PRES   REMARKS
PADUCAH        MOCLDY    66  55  67 VRB7      29.63R
HENDERSON      CLOUDY    64  57  78 S14       29.64R
OWENSBORO      SUNNY     64  57  78 S13       29.67R
HOPKINSVILLE   SUNNY     64  56  77 S7        29.70R
BOWLING GREEN  MOSUNNY   57  56  96 CALM      29.74R
GLASGOW        SUNNY     60  55  82 SW6       29.74S
$$

KYZ024-025-028>034-038-045-046-053-261300-
NORTH CENTRAL KENTUCKY

CITY           SKY/WX    TMP DP  RH WIND       PRES   REMARKS
LOUISVILLE/SDF MOSUNNY   62  56  80 SE10      29.69S
LOUISVILLE/LOU SUNNY     62  57  83 S6        29.70S
FORT KNOX      MOSUNNY   60  56  84 S8        29.70R
$$

KYZ035>037-039>044-047>052-055>060-089>105-261300-
NORTHEAST KENTUCKY

CITY           SKY/WX    TMP DP  RH WIND       PRES   REMARKS
LEXINGTON      SUNNY     59  54  83 S8        29.76R
COVINGTON      PTSUNNY   60  56  86 S9        29.71S
FRANKFORT      MOSUNNY   59  54  83 SE7       29.72S
$$

KYZ054-064>069-076>088-106>120-261300-
SOUTHEAST KENTUCKY

CITY           SKY/WX    TMP DP  RH WIND       PRES   REMARKS
JACKSON        SUNNY     58  56  93 CALM      29.82R
LONDON         SUNNY     53  50  89 SE3       29.82R
SOMERSET       SUNNY     52  52 100 CALM      29.81R
MIDDLESBORO    FOG       50  50 100 CALM      29.86R VSB<1/4
MONTICELLO     MOSUNNY   55  54  96 MISG      29.81R
$$





USA.gov is the U.S. government's official web portal to all federal, state and local government web resources and services.